Location: Tamazert
(32.6352°N, 5.2072°W)
Time: 04:42:18
(UTC+00:00)

Vanguard 2 - Pass Details

Date: 03 October 2022
Orbit: 553 x 2933 km, 32.9° (Epoch: 26 November)

Event Time Altitude Azimuth Distance (km) Brightness Sun altitude
Rises 17:08:13 0° 282° (WNW) 5,879 13.4 10.6°
Reaches altitude 10° 17:11:40 10° 281° (W) 5,109 13.3 9.9°
Maximum altitude 17:27:53 78° 198° (SSW) 2,956 10.7 6.5°
Drops below altitude 10° 17:45:23 10° 115° (ESE) 5,457 11.4 2.9°
Sets 17:49:13 0° 114° (ESE) 6,278 11.6 2.1°
